Flag for Germany Weather past 2 weeks in Böblingen, Baden-Württemberg, Germany

Now
39 °F

Clear.


Feels Like: 39 °F
Forecast: 33 / 56 °F
Wind: 1 mph from North

Location: Stuttgart-Echterdingen

Current Time: Apr 18, 2015 at 7:46:31 AM

Latest Report: Apr 18, 2015 at 7:20 AM


Visibility: 10 mi

Pressure: 30.18 "Hg

Humidity: 75%

Dew point: 32 °F

Location of BöblingenLocation

Historic Weather in Böblingen — Graph

°F

Böblingen temperature yesterday

Maximum temperature yesterday: 63 °F (at 9:50 AM)
Minimum temperature yesterday: 46 °F (at 11:20 PM)
Average temperature yesterday: 56 °F

Past Weeks' High & Low Weather Summary

 TemperatureHumidityPressure
High77 °F (Apr 15, 3:20 PM)100% (Apr 3, 6:50 AM)30.60 "Hg (Apr 3, 6:50 AM)
Low27 °F (Apr 6, 7:20 AM)15% (Apr 15, 5:50 PM)29.86 "Hg (Apr 17, 7:50 AM)
Average50 °F62%30.22 "Hg
* Reported Apr 3 6:20 AM — Apr 18 6:50 AM, Böblingen, Weather by CustomWeather, © 2015

Note: Actual official high and low records may vary slightly from our data, if they occured in-between our weather recording intervals... More about our weather records

Advertising

Böblingen weather history for previous 24 hours

 ConditionsComfort  
Time TempWeatherWind HumidityBarometerVisibility
6:50 AM
Sat, Apr 18
39 °FClear.2 mph75%30.15 "Hg10 mi
6:20 AM41 °FPassing clouds.3 mph70%30.15 "HgN/A
5:50 AM41 °FClear.5 mph66%30.15 "Hg10 mi
5:20 AM41 °FClear.5 mph70%30.15 "Hg10 mi
4:50 AM41 °FClear.3 mph70%30.15 "Hg10 mi
4:20 AM41 °FClear.6 mph70%30.12 "Hg10 mi
3:50 AM41 °FClear.7 mph70%30.12 "Hg10 mi
3:20 AM43 °FClear.6 mph66%30.12 "Hg10 mi
2:50 AM43 °FClear.7 mph66%30.12 "Hg10 mi
2:20 AM43 °FClear.6 mph66%30.12 "Hg10 mi
1:50 AM43 °FQuite cool.7 mph66%30.12 "HgN/A
1:20 AM45 °FClear.8 mph61%30.12 "Hg10 mi
12:50 AM45 °FPassing clouds.7 mph61%30.09 "HgN/A
12:20 AM46 °FClear.10 mph57%30.09 "Hg10 mi
11:50 PM
Fri, Apr 17
46 °FClear.12 mph57%30.09 "Hg10 mi
11:20 PM46 °FClear.13 mph62%30.07 "Hg10 mi
10:50 PM48 °FClear.13 mph58%30.07 "Hg10 mi
10:20 PM50 °FClear.13 mph67%30.04 "Hg10 mi
9:50 PM50 °FPassing clouds.6 mph67%30.04 "HgN/A
9:20 PM50 °FPassing clouds.6 mph71%30.01 "HgN/A
8:50 PM50 °FPartly sunny.6 mph76%30.01 "HgN/A
8:20 PM50 °FBroken clouds.7 mph76%30.01 "HgN/A
7:50 PM50 °FBroken clouds.9 mph76%29.98 "HgN/A
7:20 PM52 °FBroken clouds.10 mph77%29.98 "HgN/A
6:50 PM52 °FPartly sunny.10 mph82%29.95 "HgN/A
6:20 PM52 °FLight rain. Partly sunny.12 mph82%29.95 "HgN/A
5:50 PM52 °FLight rain. Broken clouds.13 mph88%29.95 "HgN/A
5:20 PM54 °FSprinkles. Broken clouds.15 mph77%29.95 "HgN/A
4:50 PM55 °FSprinkles. Broken clouds.10 mph77%29.92 "HgN/A
4:20 PM55 °FBroken clouds.14 mph77%29.92 "HgN/A
3:50 PM57 °FPartly sunny.17 mph67%29.92 "HgN/A
3:20 PM59 °FBroken clouds.16 mph63%29.92 "HgN/A
2:50 PM61 °FBroken clouds.17 mph63%29.89 "HgN/A
2:20 PM61 °FScattered clouds.16 mph63%29.89 "HgN/A
1:50 PM61 °FScattered clouds.15 mph68%29.92 "HgN/A
1:20 PM59 °FPartly sunny.16 mph72%29.92 "HgN/A
12:50 PM59 °FBroken clouds.21 mph72%29.89 "HgN/A
12:20 PM61 °FPartly sunny.14 mph68%29.89 "HgN/A
11:50 AM61 °FScattered clouds.15 mph68%29.89 "HgN/A
11:20 AM59 °FSprinkles. Partly sunny.12 mph77%29.89 "HgN/A
10:50 AM61 °FScattered clouds.10 mph72%29.89 "HgN/A
10:20 AM63 °FScattered clouds.8 mph64%29.89 "HgN/A
9:50 AM63 °FScattered clouds.7 mph64%29.89 "HgN/A
9:20 AM61 °FScattered clouds.6 mph72%29.89 "HgN/A
8:50 AM59 °FScattered clouds.5 mph77%29.89 "HgN/A
8:20 AM57 °FScattered clouds.1 mph77%29.89 "HgN/A
7:50 AM55 °FScattered clouds.1 mph88%29.86 "HgN/A
7:20 AM55 °FPassing clouds.2 mph88%29.89 "HgN/A
Weather by CustomWeather, © 2015

See weather overviewHow to use our weather pages